Location: Gleizolles
(44.4833°N, 6.7667°E)
Time: 15:19:40
(UTC+00:00)

deb Explorer IX - Pass Details

Date: 04 July 2024
Orbit: 510 x 878 km, 38.7° (Epoch: 21 July)

Event Time Altitude Azimuth Distance (km) Brightness Sun altitude
Rises 04:46:22 0° 254° (WSW) 2,612 ? 7.3°
Reaches altitude 10° 04:48:41 10° 246° (WSW) 1,720 ? 7.6°
Maximum altitude 04:52:16 36° 178° (S) 827 ? 8.2°
Drops below altitude 10° 04:55:56 10° 112° (ESE) 1,764 ? 8.8°
Sets 04:58:20 0° 103° (ESE) 2,691 ? 9.2°
